Wind_Speed
39 39 36 39 36 35 31 28 25 23 23 22 19 18 16 17 19 22 24 25 25 26 28 28 27 26 25 27 29 21 19 19 20 18 19 22 19 18 16 18 19 21 24 25 27 29 29 30 27 29 28 26 22 26
40 35 34 34 32 31 30 27 25 23 22 21 18 16 15 17 16 17 20 23 29 29 26 24 24 25 28 28 19 15 21 21 23 20 20 22 20 17 16 18 20 22 22 25 25 24 27 30 30 29 29 29 27 26
38 34 33 31 30 29 28 26 24 24 24 21 18 18 20 21 18 18 18 17 18 25 28 26 23 27 25 20 16 18 21 20 23 20 20 20 19 16 18 20 22 23 23 25 26 25 25 27 27 28 26 25 27 26
34 34 33 31 28 28 27 26 24 22 23 22 21 19 21 21 21 22 20 20 17 18 21 26 28 28 23 19 16 21 20 22 23 22 21 17 18 15 19 21 20 23 21 25 25 26 25 25 24 25 26 26 24 27
34 34 31 29 28 25 25 25 24 21 21 22 22 21 21 22 23 22 23 21 21 20 16 19 23 26 20 16 19 20 22 24 24 21 20 18 16 17 16 18 17 22 24 24 23 26 24 22 21 20 21 25 25 25
37 34 32 30 29 28 26 24 25 22 20 21 22 23 22 23 23 21 21 21 20 20 17 17 18 19 16 20 25 23 24 24 25 19 18 15 16 15 12 13 20 23 24 23 24 23 25 22 22 22 20 20 22 21
32 31 23 23 26 26 24 24 24 23 22 23 24 23 23 22 21 20 20 20 20 20 20 19 17 15 17 22 22 24 23 22 20 17 17 17 15 11 10 14 17 20 22 19 19 21 22 21 21 21 18 19 18 16
30 29 30 28 28 26 27 26 25 25 24 24 23 22 21 20 20 19 20 21 21 22 21 21 18 15 18 21 21 21 23 22 17 17 18 16 11 8 9 12 16 18 18 13 13 16 18 20 18 15 16 17 18 14
29 31 31 27 27 29 26 25 25 24 23 23 22 22 20 20 19 19 20 22 22 21 17 18 16 18 20 22 21 21 23 22 18 18 19 16 10 8 7 11 13 16 15 9 9 10 13 13 15 17 14 15 13 9
29 32 23 26 27 29 23 23 22 21 22 22 21 20 18 18 17 16 17 18 17 17 16 15 18 19 20 22 22 23 22 20 20 21 20 15 13 6 5 9 11 13 15 8 6 3 5 8 11 12 14 14 10 9
31 28 24 21 22 27 23 22 22 23 23 21 20 18 17 16 15 15 15 15 14 13 14 18 21 20 23 24 24 26 21 20 20 23 19 16 14 9 4 6 8 8 12 13 5 5 5 6 7 9 12 12 12 11
30 30 30 28 24 25 23 23 24 23 22 21 20 19 15 15 16 16 13 12 13 15 17 18 19 20 24 24 23 26 23 23 23 23 20 18 15 11 6 4 5 3 5 8 9 6 7 8 9 10 11 12 12 12
24 25 26 25 25 24 24 24 24 23 22 22 20 19 17 18 17 13 11 13 14 16 14 17 19 22 24 24 24 24 24 23 24 24 19 20 17 14 10 5 5 4 1 2 4 7 7 7 7 9 10 10 10 10
19 22 23 22 22 22 23 24 23 23 23 23 20 18 18 16 12 12 14 13 12 13 14 16 17 20 22 23 25 22 25 25 24 22 18 23 20 18 14 10 7 6 5 3 3 3 3 6 8 9 9 9 9 9
25 25 23 24 25 25 25 25 26 25 25 24 22 20 16 15 13 14 14 14 15 13 15 16 18 21 22 26 28 27 25 27 26 20 23 26 21 20 17 13 11 9 9 7 4 4 5 6 6 6 7 8 9 11
23 23 24 25 26 26 27 27 28 27 26 25 21 18 14 14 13 13 14 13 15 15 14 14 18 22 25 26 26 28 27 26 26 22 29 28 22 21 18 16 15 14 12 13 12 9 9 8 8 8 9 10 10 10
22 23 24 25 26 26 26 27 27 27 25 21 20 21 19 16 14 12 14 15 14 12 15 15 15 16 19 21 23 23 21 30 28 24 30 28 24 22 20 19 18 17 14 16 17 14 13 12 12 13 13 12 11 11
20 21 22 23 26 26 25 25 26 24 22 23 26 28 24 21 21 19 17 16 15 17 19 16 15 17 19 18 15 16 20 27 27 27 31 29 28 26 25 23 21 20 17 16 16 16 15 15 15 15 14 14 15 15
16 16 15 17 18 18 18 19 19 18 21 24 26 26 25 25 26 26 24 19 19 22 20 18 18 17 19 22 21 20 22 23 23 24 29 31 29 28 27 26 25 25 24 21 19 19 19 19 19 19 19 19 20 20
13 14 14 13 11 12 14 13 10 14 21 21 21 22 22 22 22 23 23 22 21 26 23 18 14 12 14 21 20 23 23 21 22 25 27 33 34 28 29 29 28 27 27 27 26 26 25 25 25 25 24 24 24 25
11 15 16 14 11 9 13 13 15 12 17 19 16 13 14 16 17 19 20 20 18 18 23 23 19 13 18 19 21 21 23 21 24 23 27 31 35 31 29 28 28 29 29 28 28 29 29 29 30 30 29 29 29 30
12 18 19 17 13 10 11 13 12 10 11 11 10 11 13 13 12 13 16 15 16 21 25 29 23 16 17 17 15 16 20 21 25 27 28 32 32 32 32 30 29 30 31 30 28 28 31 34 33 32 32 33 33 34
13 14 16 16 14 12 11 9 8 8 8 9 10 12 12 14 13 12 11 12 16 20 24 25 25 24 21 20 19 19 21 20 21 22 28 30 29 31 33 34 32 29 28 32 34 32 31 31 27 26 30 35 38 39
12 12 13 15 13 11 10 9 7 5 6 8 9 11 11 11 13 14 12 10 7 5 6 12 21 22 21 22 21 22 23 26 25 23 21 27 29 31 30 30 34 32 28 25 27 31 27 27 30 34 35 36 35 38
14 15 19 13 10 11 10 9 7 7 10 9 10 12 12 12 9 7 6 7 7 7 5 7 10 11 14 16 22 24 23 22 24 23 19 19 19 22 28 34 36 34 30 29 33 32 31 32 33 33 33 33 33 32
14 14 15 13 11 12 10 10 10 13 12 11 12 11 10 8 5 6 5 5 5 5 3 3 6 8 6 9 14 16 19 22 21 22 20 24 25 25 27 31 31 34 38 39 38 32 30 27 24 24 23 23 23 24
16 13 12 13 15 15 15 16 16 14 11 11 11 11 12 10 9 6 5 3 2 5 5 3 4 6 5 6 7 11 11 13 16 14 15 16 18 19 19 18 17 18 20 21 23 21 22 25 26 26 25 27 27 26
12 14 17 18 20 21 16 15 12 12 13 14 13 13 12 8 6 6 5 2 3 2 2 4 4 1 2 3 4 4 9 10 6 8 12 13 13 10 9 10 11 12 14 16 19 21 22 23 23 23 22 22 22 24
17 20 20 22 18 18 13 15 14 15 20 14 10 11 9 5 5 5 3 5 6 6 6 5 6 6 5 6 4 2 4 5 4 5 6 7 8 11 13 14 15 16 17 18 19 20 21 23 24 26 27 28 28 29
22 23 24 20 15 12 14 25 22 14 11 9 9 8 8 9 10 8 6 4 5 6 7 7 6 4 4 4 4 4 5 6 8 8 8 9 10 12 13 15 17 19 21 22 24 25 26 27 28 28 29 29 29 29
27 27 23 22 21 23 25 19 18 14 16 13 10 10 9 8 6 4 2 2 2 3 3 3 3 3 3 3 4 4 5 6 8 9 11 13 15 17 18 19 20 21 23 24 25 25 25 25 26 26 27 27 27 26
27 23 20 21 25 20 16 15 13 11 9 5 4 5 5 6 4 2 3 4 4 4 2 2 2 2 4 5 6 7 10 12 13 14 16 18 20 21 22 23 25 26 27 28 29 31 32 32 31 30 29 28 28 28
23 20 19 19 20 16 14 13 11 10 9 7 4 4 5 6 7 5 2 2 2 1 2 4 6 7 8 11 13 14 15 17 18 19 20 21 22 24 26 28 30 31 33 34 35 35 35 35 35 33 32 31 29 29
Wind_Direction
280 284 287 287 287 286 285 280 274 279 285 281 283 282 281 279 267 260 252 246 244 245 246 244 241 237 236 233 243 232 241 247 249 254 250 262 265 273 261 253 257 264 268 268 263 261 259 259 255 250 251 242 240 235
276 277 285 285 283 282 278 276 272 275 278 277 273 281 278 275 273 269 260 259 250 235 237 236 234 236 235 241 234 232 248 248 248 254 256 258 265 271 259 264 265 266 265 265 266 260 264 259 253 248 250 245 242 233
272 276 279 284 282 277 272 272 272 269 273 272 279 278 273 269 269 269 275 275 271 254 246 235 230 235 245 230 232 236 240 243 243 251 259 260 264 260 263 263 267 267 264 264 267 264 265 260 256 249 247 242 236 231
274 275 277 277 278 271 267 266 270 270 264 271 275 278 275 267 268 261 261 267 265 267 264 251 242 243 233 229 229 239 244 238 239 246 255 254 261 252 263 271 277 277 274 267 267 267 268 265 256 250 246 245 242 232
274 276 270 260 270 272 264 266 266 265 271 269 274 275 275 269 273 265 247 254 262 261 263 255 248 250 237 233 230 237 239 234 233 246 243 250 250 257 273 285 290 278 277 272 267 262 264 262 254 248 243 239 243 246
269 270 272 261 264 259 261 261 262 263 262 269 273 273 272 271 271 259 249 248 253 261 265 255 243 239 237 241 238 233 235 233 231 245 236 238 244 265 289 290 282 297 297 287 272 259 256 255 248 248 245 236 233 237
262 259 259 257 263 252 259 256 255 259 261 263 269 269 269 266 263 257 251 248 255 259 257 252 244 240 240 235 233 230 232 229 237 224 229 229 242 267 290 301 308 312 307 292 269 251 248 240 237 238 238 231 229 242
253 254 260 263 257 259 260 253 256 260 263 266 268 267 269 262 262 257 251 248 262 261 259 247 244 240 235 229 226 228 226 229 214 217 215 221 227 260 289 316 319 328 326 307 275 251 238 234 235 228 227 224 225 240
261 259 255 250 256 260 248 251 259 261 262 266 268 268 266 260 261 254 254 255 260 260 251 235 232 230 222 216 220 219 220 225 212 213 215 214 223 246 301 325 329 342 347 328 307 271 243 232 231 217 218 212 212 216
265 265 251 245 252 257 259 254 259 262 267 266 265 265 261 259 254 260 256 257 260 245 237 231 234 222 212 212 214 210 219 220 215 212 208 210 221 230 298 324 327 350 4 358 10 2 236 216 198 194 202 201 193 185
265 266 262 242 255 265 252 252 259 265 264 261 261 260 255 256 258 262 258 255 253 231 223 233 238 223 208 208 208 213 219 214 209 209 207 209 216 221 250 322 325 348 7 22 46 93 121 121 164 173 179 189 181 180
262 257 258 257 253 252 252 255 262 262 254 255 255 256 253 256 258 257 255 250 229 240 233 235 229 217 206 207 214 218 222 213 207 205 207 208 206 215 220 292 314 318 12 20 42 91 117 134 141 151 165 180 187 191
264 264 260 258 255 251 250 255 256 252 250 251 255 252 248 251 258 259 248 231 231 241 239 230 220 206 199 209 217 221 220 215 208 209 205 210 202 210 214 238 286 285 214 61 45 62 92 127 158 175 180 178 183 191
255 246 242 248 254 254 252 249 246 247 249 252 253 246 243 252 251 235 235 229 243 238 236 229 216 203 206 210 216 219 223 218 213 211 208 215 204 211 216 224 246 260 242 175 146 132 117 119 127 133 140 154 171 184
254 252 253 249 252 252 249 247 245 247 246 251 247 243 235 240 236 225 228 239 235 229 225 224 213 206 212 217 219 224 227 226 215 209 212 219 206 212 216 229 241 237 235 231 214 196 184 171 163 169 169 172 178 187
256 255 254 252 250 249 248 247 247 246 246 244 239 233 226 218 220 223 227 241 237 231 226 227 222 223 225 228 229 230 225 224 215 211 219 223 213 215 218 223 233 239 237 228 228 221 208 204 202 193 194 193 195 199
254 252 251 249 248 247 246 245 245 244 242 237 222 221 223 222 221 224 226 227 237 222 211 219 218 221 231 238 242 241 238 227 227 217 222 223 223 221 221 223 231 235 235 233 229 231 230 227 219 215 217 218 226 231
251 252 250 247 243 242 242 242 242 238 234 225 216 222 228 232 236 239 238 235 230 213 197 213 225 232 239 239 243 229 217 220 216 208 217 219 221 219 218 220 225 232 234 240 239 237 240 244 248 250 250 250 252 255
249 247 238 230 227 228 231 234 233 230 217 218 225 233 239 242 245 239 236 237 218 206 204 207 221 229 229 221 210 203 213 206 211 213 218 220 221 219 220 224 231 233 234 235 239 246 248 247 249 250 254 256 259 265
242 231 221 210 214 217 222 209 218 226 218 224 233 238 243 243 234 227 224 226 217 213 214 204 189 208 218 214 215 226 228 228 218 212 219 226 225 217 220 225 229 235 236 239 242 246 252 255 257 258 259 261 263 266
224 201 188 195 207 225 219 228 253 245 222 224 224 220 227 214 208 214 218 217 207 208 202 196 199 234 215 223 228 236 231 235 214 216 216 226 228 222 225 229 232 237 239 241 244 248 251 254 256 257 260 261 264 267
207 208 205 210 231 250 233 223 202 204 206 211 222 208 209 204 202 208 210 209 218 224 220 218 216 210 210 214 225 234 232 236 234 231 228 230 233 231 232 235 239 241 243 243 247 253 257 258 257 258 261 261 262 267
211 213 212 217 222 217 193 188 204 210 208 209 208 200 198 202 206 197 199 203 211 219 219 219 219 218 221 232 244 245 241 242 247 243 236 237 237 235 233 232 235 242 252 248 246 255 258 254 249 259 274 277 270 264
203 195 190 173 169 182 189 190 183 186 190 185 184 185 181 180 187 191 207 213 211 216 239 235 232 235 236 234 239 242 242 241 240 245 248 232 233 235 240 238 242 241 244 245 241 248 261 267 271 272 281 284 265 263
178 179 170 174 174 168 162 169 164 152 150 155 162 167 174 169 177 191 193 206 240 266 281 276 233 233 243 246 238 241 247 248 244 242 241 245 245 250 246 243 241 241 253 256 251 257 261 268 277 277 279 278 272 263
165 164 172 168 169 165 161 165 160 150 148 144 149 149 154 161 172 173 194 234 204 206 247 237 225 215 223 246 251 254 242 242 250 235 241 251 253 256 254 246 243 245 244 243 248 261 268 270 276 275 273 270 270 269
163 167 169 161 154 150 147 143 140 132 128 139 147 137 136 129 131 147 143 150 178 199 199 182 173 196 230 257 269 246 241 234 247 232 241 251 247 247 248 248 251 255 260 262 262 261 264 268 269 269 269 270 272 271
166 157 153 151 151 138 134 124 104 121 124 123 124 125 125 125 140 157 156 139 125 145 195 218 204 134 319 280 281 218 194 198 205 246 250 249 243 248 271 278 276 275 273 270 269 269 271 273 274 273 271 270 270 270
157 155 150 153 145 149 137 113 129 129 128 133 142 144 115 124 149 170 150 125 110 91 87 95 149 181 295 315 315 289 307 313 310 310 294 292 290 286 285 281 280 279 278 276 274 272 271 272 272 273 273 273 273 272
154 153 151 154 152 151 120 134 138 125 129 138 145 143 138 130 128 123 109 103 96 72 78 81 85 69 25 13 1 344 331 316 310 304 298 292 289 285 283 281 279 278 278 278 278 277 276 275 275 274 273 273 272 273
153 153 152 140 138 126 125 122 134 130 131 114 108 117 138 167 171 185 168 168 122 78 95 55 41 17 38 16 345 321 304 290 282 281 279 279 278 279 281 283 284 284 284 284 283 282 282 282 282 282 281 279 277 276
153 157 157 150 142 133 130 139 135 138 141 135 109 111 135 171 179 165 129 139 143 156 197 253 253 268 306 315 314 305 300 297 296 298 301 302 302 301 298 296 293 292 291 290 287 286 286 284 282 280 278 277 276 274
152 155 156 154 160 160 144 136 134 136 131 132 154 185 184 175 162 170 152 152 149 173 296 303 295 300 307 311 313 312 312 314 314 310 305 303 301 300 299 297 295 293 291 290 288 287 286 285 285 283 281 279 275 273
Height
5756 5755 5755 5755 5752 5751 5750 5750 5750 5749 5748 5746 5744 5742 5743 5743 5743 5745 5746 5748 5751 5752 5753 5757 5760 5764 5767 5770 5771 5773 5775 5778 5780 5781 5783 5783 5784 5783 5784 5784 5785 5785 5785 5784 5783 5783 5784 5783 5785 5786 5785 5788 5789 5792
5744 5744 5744 5743 5742 5741 5741 5742 5742 5741 5741 5740 5738 5737 5738 5738 5738 5739 5740 5741 5742 5743 5746 5749 5752 5755 5758 5761 5763 5765 5769 5772 5773 5775 5776 5777 5777 5778 5778 5778 5778 5777 5777 5776 5776 5775 5773 5774 5775 5776 5777 5779 5782 5785
5731 5733 5733 5733 5732 5732 5733 5734 5734 5733 5733 5733 5731 5731 5732 5733 5733 5734 5734 5735 5736 5738 5739 5743 5744 5747 5751 5752 5754 5759 5762 5764 5766 5768 5770 5771 5771 5772 5772 5772 5770 5769 5769 5767 5766 5767 5765 5765 5767 5769 5770 5771 5775 5778
5721 5722 5723 5723 5722 5724 5725 5725 5726 5725 5725 5725 5725 5724 5726 5727 5726 5727 5728 5729 5731 5732 5733 5736 5737 5739 5742 5745 5748 5751 5754 5757 5760 5762 5763 5765 5766 5766 5766 5765 5764 5762 5761 5759 5758 5757 5757 5757 5759 5761 5763 5765 5767 5770
5712 5713 5713 5713 5714 5716 5717 5717 5718 5718 5717 5717 5717 5717 5719 5719 5719 5719 5721 5723 5724 5726 5727 5728 5731 5732 5735 5738 5742 5745 5748 5751 5753 5756 5758 5760 5760 5760 5760 5759 5758 5754 5752 5751 5750 5748 5749 5750 5752 5753 5755 5758 5761 5764
5702 5704 5702 5703 5705 5707 5708 5709 5711 5710 5710 5710 5710 5710 5711 5711 5711 5712 5714 5716 5717 5718 5721 5723 5725 5727 5730 5732 5735 5738 5741 5744 5748 5750 5753 5754 5755 5755 5755 5754 5751 5747 5745 5742 5741 5741 5741 5742 5745 5747 5749 5751 5755 5758
5692 5693 5694 5695 5696 5697 5699 5701 5702 5702 5703 5703 5703 5703 5703 5703 5704 5705 5708 5709 5710 5712 5714 5716 5718 5722 5724 5726 5728 5732 5735 5739 5743 5745 5748 5749 5750 5751 5750 5749 5746 5742 5737 5734 5732 5732 5733 5736 5738 5740 5744 5747 5750 5752
5681 5682 5684 5686 5688 5690 5691 5692 5694 5695 5695 5695 5695 5695 5696 5696 5697 5699 5701 5703 5704 5705 5707 5709 5713 5716 5717 5720 5723 5726 5730 5734 5738 5741 5743 5744 5746 5746 5747 5745 5741 5738 5732 5729 5726 5726 5727 5729 5733 5737 5739 5742 5746 5749
5672 5672 5674 5676 5679 5681 5682 5684 5685 5686 5687 5688 5688 5688 5689 5690 5691 5693 5694 5695 5696 5699 5700 5703 5706 5708 5710 5714 5718 5721 5726 5729 5733 5736 5737 5740 5742 5743 5743 5741 5738 5734 5730 5727 5724 5723 5724 5726 5729 5733 5736 5740 5743 5745
5662 5664 5664 5667 5670 5672 5674 5676 5677 5679 5680 5680 5681 5682 5682 5683 5685 5687 5688 5689 5690 5691 5694 5697 5698 5702 5706 5709 5713 5717 5721 5725 5729 5731 5733 5736 5738 5740 5740 5738 5736 5733 5730 5726 5724 5722 5723 5724 5727 5730 5733 5738 5741 5743
5654 5655 5656 5658 5662 5664 5665 5668 5670 5672 5672 5673 5674 5675 5676 5678 5680 5681 5682 5683 5685 5687 5689 5690 5693 5696 5700 5704 5708 5711 5716 5720 5723 5727 5730 5733 5735 5736 5737 5736 5734 5732 5730 5727 5724 5723 5724 5725 5728 5730 5733 5736 5739 5741
5645 5647 5649 5651 5653 5656 5658 5660 5662 5664 5666 5667 5668 5669 5671 5673 5674 5676 5677 5679 5680 5682 5683 5685 5688 5691 5695 5700 5704 5707 5711 5715 5719 5722 5726 5729 5732 5733 5733 5734 5733 5731 5730 5729 5727 5725 5725 5726 5728 5730 5733 5736 5738 5740
5635 5637 5640 5642 5644 5647 5650 5652 5655 5657 5659 5660 5662 5663 5665 5667 5668 5671 5672 5674 5675 5677 5679 5681 5682 5686 5691 5696 5699 5703 5706 5711 5714 5718 5723 5725 5727 5729 5730 5731 5731 5730 5730 5730 5729 5728 5727 5727 5728 5730 5732 5734 5736 5737
5627 5629 5632 5634 5637 5639 5642 5645 5648 5650 5652 5653 5655 5658 5659 5661 5664 5666 5667 5669 5672 5673 5675 5676 5679 5683 5688 5691 5694 5699 5701 5705 5710 5715 5719 5719 5723 5724 5726 5728 5729 5729 5729 5730 5729 5730 5730 5730 5730 5731 5732 5733 5735 5737
5619 5621 5624 5626 5629 5632 5635 5637 5640 5642 5645 5646 5649 5651 5655 5657 5659 5661 5663 5665 5667 5669 5671 5673 5676 5680 5683 5685 5689 5692 5696 5700 5706 5712 5713 5714 5718 5720 5722 5724 5726 5726 5726 5727 5728 5729 5730 5731 5731 5732 5733 5734 5735 5737
5611 5613 5616 5618 5621 5624 5626 5629 5631 5634 5636 5639 5643 5647 5650 5652 5654 5656 5659 5661 5663 5665 5667 5669 5672 5675 5677 5680 5683 5686 5692 5695 5702 5705 5705 5709 5713 5716 5718 5720 5722 5724 5724 5724 5725 5726 5728 5729 5730 5732 5732 5733 5734 5736
5603 5605 5608 5610 5613 5615 5618 5621 5623 5625 5629 5634 5639 5640 5644 5647 5650 5652 5654 5656 5658 5661 5662 5665 5668 5669 5671 5674 5676 5679 5684 5689 5691 5696 5698 5704 5708 5711 5713 5715 5718 5719 5720 5721 5722 5723 5725 5726 5727 5728 5729 5731 5732 5733
5597 5598 5600 5602 5605 5608 5610 5613 5615 5619 5624 5627 5630 5632 5637 5641 5645 5646 5648 5651 5654 5656 5658 5660 5663 5665 5666 5668 5671 5673 5675 5678 5682 5687 5691 5697 5700 5704 5707 5710 5712 5714 5716 5718 5719 5720 5721 5722 5723 5725 5727 5728 5729 5730
5591 5593 5595 5597 5599 5602 5605 5607 5610 5614 5617 5619 5622 5627 5631 5634 5637 5639 5641 5644 5647 5650 5652 5655 5657 5659 5661 5663 5668 5673 5670 5673 5678 5683 5686 5690 5693 5697 5701 5704 5706 5708 5710 5712 5714 5715 5716 5717 5718 5720 5721 5722 5723 5724
5587 5589 5591 5594 5596 5598 5601 5604 5606 5609 5611 5615 5618 5621 5624 5625 5627 5631 5634 5637 5641 5644 5647 5650 5653 5654 5657 5660 5663 5664 5666 5669 5672 5677 5680 5682 5685 5690 5693 5696 5699 5701 5703 5705 5707 5709 5710 5710 5712 5713 5714 5715 5715 5715
5584 5587 5589 5592 5595 5597 5599 5601 5603 5605 5606 5609 5613 5616 5618 5620 5622 5625 5628 5632 5636 5641 5644 5646 5649 5651 5653 5655 5657 5659 5661 5665 5668 5671 5673 5674 5677 5682 5685 5688 5691 5693 5695 5697 5699 5701 5702 5703 5704 5704 5705 5706 5706 5706
5583 5585 5588 5590 5593 5594 5596 5598 5601 5603 5606 5608 5610 5612 5615 5617 5620 5622 5625 5629 5632 5635 5636 5639 5644 5646 5648 5650 5653 5655 5657 5660 5662 5664 5666 5668 5671 5674 5677 5680 5683 5685 5686 5688 5690 5692 5694 5694 5695 5695 5697 5697 5697 5697
5581 5583 5586 5588 5591 5593 5596 5597 5600 5602 5604 5605 5607 5609 5612 5615 5618 5621 5623 5625 5627 5629 5632 5637 5640 5642 5645 5647 5649 5651 5651 5653 5655 5658 5660 5662 5664 5667 5669 5672 5674 5676 5678 5680 5681 5683 5684 5684 5684 5685 5686 5685 5684 5684
5579 5581 5584 5587 5590 5593 5595 5597 5599 5600 5602 5604 5606 5609 5612 5614 5617 5619 5622 5624 5626 5628 5630 5632 5634 5637 5639 5641 5642 5642 5644 5646 5648 5650 5652 5655 5657 5660 5662 5664 5666 5668 5669 5671 5672 5673 5674 5675 5675 5675 5674 5672 5670 5671
5580 5583 5586 5588 5590 5593 5595 5597 5599 5601 5603 5605 5607 5610 5613 5615 5618 5620 5622 5623 5624 5625 5626 5628 5629 5631 5632 5633 5635 5637 5639 5640 5641 5642 5646 5648 5650 5651 5653 5654 5656 5659 5660 5661 5662 5663 5664 5664 5664 5663 5662 5661 5660 5658
5581 5584 5587 5589 5592 5594 5597 5598 5600 5602 5605 5607 5609 5611 5613 5616 5618 5620 5621 5621 5623 5625 5626 5626 5627 5628 5629 5630 5631 5632 5633 5635 5636 5637 5639 5641 5643 5644 5644 5645 5646 5648 5649 5650 5652 5652 5653 5653 5653 5653 5652 5652 5651 5651
5582 5585 5588 5590 5593 5595 5597 5599 5601 5604 5606 5608 5610 5612 5614 5616 5618 5619 5620 5621 5622 5624 5625 5625 5626 5627 5628 5628 5628 5627 5629 5630 5632 5633 5634 5635 5635 5636 5637 5637 5637 5638 5639 5640 5641 5643 5644 5644 5644 5644 5643 5644 5643 5642
5584 5587 5590 5593 5594 5596 5598 5600 5603 5605 5607 5609 5612 5613 5616 5617 5619 5620 5621 5622 5622 5623 5623 5624 5625 5626 5626 5626 5627 5627 5627 5628 5629 5629 5629 5630 5630 5630 5631 5631 5632 5633 5633 5634 5635 5635 5635 5635 5634 5634 5634 5634 5633 5633
5586 5588 5592 5594 5597 5598 5600 5603 5605 5604 5609 5612 5612 5613 5617 5618 5619 5620 5621 5622 5623 5623 5623 5623 5624 5625 5626 5626 5626 5626 5626 5626 5626 5627 5627 5627 5628 5628 5627 5627 5628 5628 5629 5628 5628 5628 5627 5627 5626 5626 5625 5625 5624 5623
5587 5591 5595 5597 5599 5601 5604 5606 5609 5610 5612 5614 5615 5617 5618 5620 5621 5622 5623 5623 5624 5624 5624 5624 5625 5626 5626 5626 5626 5626 5626 5625 5625 5626 5626 5626 5625 5625 5625 5624 5624 5623 5622 5621 5620 5619 5618 5617 5616 5615 5615 5614 5613 5612
5589 5593 5597 5600 5602 5604 5607 5609 5612 5614 5616 5617 5619 5620 5621 5622 5623 5623 5624 5624 5624 5625 5625 5626 5627 5627 5627 5627 5626 5626 5625 5625 5624 5624 5623 5622 5622 5621 5619 5618 5617 5615 5614 5612 5611 5609 5608 5607 5606 5605 5604 5602 5601 5601
5593 5596 5600 5603 5605 5608 5610 5613 5615 5617 5618 5619 5620 5621 5622 5623 5623 5623 5624 5624 5624 5625 5625 5626 5626 5625 5625 5624 5624 5623 5622 5621 5620 5618 5617 5615 5614 5612 5610 5608 5606 5604 5602 5601 5599 5598 5596 5595 5594 5593 5592 5591 5590 5589
5597 5600 5602 5605 5608 5611 5614 5616 5618 5619 5620 5621 5621 5622 5622 5622 5623 5623 5624 5624 5625 5625 5625 5625 5624 5624 5623 5622 5620 5619 5617 5616 5614 5612 5610 5608 5606 5603 5601 5598 5596 5593 5591 5588 5586 5584 5582 5580 5579 5578 5577 5576 5576 5576